| time (UTC) | temp C | wind direction | speed KPH | gust KPH | rain 1hr cm | rain 24hr cm | rain mn cm | humidity % | barometer mb |
| 20260509113036 | 10 | 118 | 0.0 | 0.0 | 0.00 | 0.00 | 0.00 | 97 | 1010.8 |
| 20260509111529 | 9 | 116 | 0.0 | 0.0 | 0.00 | 0.00 | 0.00 | 97 | 1010.8 |
| 20260509110032 | 9 | 115 | 0.0 | 0.0 | 0.00 | 0.00 | 0.00 | 97 | 1010.5 |
| 20260509104538 | 8 | 115 | 0.0 | 0.0 | 0.00 | 0.00 | 0.00 | 97 | 1010.5 |
| 20260509103027 | 8 | 115 | 0.0 | 0.0 | 0.00 | 0.00 | 0.00 | 96 | 1010.5 |
| 20260509101533 | 8 | 115 | 0.0 | 0.0 | 0.00 | 0.00 | 0.00 | 96 | 1010.8 |
| 20260509100028 | 8 | 115 | 0.0 | 0.0 | 0.00 | 0.00 | 0.00 | 96 | 1010.9 |
| 20260509094532 | 8 | 115 | 0.0 | 0.0 | 0.00 | 0.00 | 0.00 | 96 | 1011.0 |
| 20260509093025 | 8 | 115 | 0.0 | 0.0 | 0.00 | 0.00 | 0.00 | 96 | 1010.9 |
| 20260509091535 | 7 | 115 | 0.0 | 0.0 | 0.00 | 0.00 | 0.00 | 97 | 1010.8 |
| 20260509090025 | 7 | 115 | 0.0 | 0.0 | 0.00 | 0.00 | 0.00 | 96 | 1010.5 |
| 20260509084524 | 7 | 115 | 0.0 | 0.0 | 0.00 | 0.00 | 0.00 | 96 | 1010.4 |
| 20260509083021 | 7 | 113 | 0.0 | 0.0 | 0.00 | 0.00 | 0.00 | 96 | 1010.4 |
| 20260509081526 | 7 | 113 | 0.0 | 0.0 | 0.00 | 0.00 | 0.00 | 95 | 1010.3 |
| 20260509080019 | 7 | 113 | 0.0 | 0.0 | 0.00 | 0.00 | 0.00 | 95 | 1010.6 |
| 20260509074531 | 7 | 113 | 0.0 | 0.0 | 0.00 | 0.00 | 0.00 | 96 | 1010.5 |
| 20260509073018 | 7 | 113 | 0.0 | 0.0 | 0.00 | 0.00 | 0.00 | 95 | 1010.4 |
| 20260509071515 | 7 | 113 | 0.0 | 0.0 | 0.00 | 0.00 | 0.00 | 94 | 1010.6 |
| 20260509070014 | 7 | 113 | 0.0 | 0.0 | 0.00 | 0.00 | 0.00 | 95 | 1010.5 |
| 20260509064512 | 7 | 113 | 0.0 | 0.0 | 0.00 | 0.00 | 0.00 | 95 | 1010.7 |
| 20260509063014 | 7 | 113 | 0.0 | 0.0 | 0.00 | 0.00 | 0.00 | 93 | 1010.8 |
| 20260509061505 | 8 | 113 | 0.0 | 0.0 | 0.00 | 0.00 | 0.00 | 94 | 1010.9 |
| 20260509060004 | 8 | 113 | 0.0 | 0.0 | 0.00 | 0.00 | 0.00 | 93 | 1011.1 |
| 20260509054504 | 8 | 73 | 0.0 | 0.0 | 0.00 | 0.00 | 0.00 | 93 | 1011.0 |
| 20260509053110 | 8 | 73 | 0.0 | 0.0 | 0.00 | 0.00 | 0.00 | 93 | 1011.3 |
| 20260509051559 | 8 | 73 | 0.0 | 0.0 | 0.00 | 0.00 | 0.00 | 92 | 1011.5 |
| 20260509050053 | 8 | 73 | 0.0 | 0.0 | 0.00 | 0.00 | 0.00 | 92 | 1011.7 |
| 20260509044552 | 8 | 73 | 0.0 | 0.0 | 0.00 | 0.00 | 0.00 | 91 | 1011.7 |
| 20260509043050 | 8 | 73 | 0.0 | 0.0 | 0.00 | 0.00 | 0.00 | 90 | 1011.7 |
| 20260509041611 | 8 | 73 | 0.0 | 0.0 | 0.00 | 0.00 | 0.00 | 88 | 1011.8 |
| 20260509040045 | 10 | 73 | 0.0 | 0.0 | 0.00 | 0.00 | 0.00 | 88 | 1011.9 |
| 20260509034544 | 9 | 73 | 0.0 | 0.0 | 0.00 | 0.00 | 0.00 | 87 | 1012.1 |
| 20260509033043 | 10 | 73 | 0.0 | 0.0 | 0.00 | 0.00 | 0.00 | 86 | 1012.1 |
| 20260509031542 | 10 | 73 | 0.0 | 0.0 | 0.00 | 0.00 | 0.00 | 85 | 1012.2 |
| 20260509030045 | 10 | 73 | 0.0 | 0.0 | 0.00 | 0.00 | 0.00 | 84 | 1012.0 |
| 20260509024541 | 11 | 73 | 0.0 | 0.0 | 0.00 | 0.00 | 0.00 | 80 | 1011.8 |
| 20260509023058 | 11 | 73 | 0.0 | 0.0 | 0.00 | 0.00 | 0.00 | 80 | 1012.0 |
| 20260509021541 | 11 | 73 | 0.0 | 0.0 | 0.00 | 0.00 | 0.00 | 78 | 1012.1 |
| 20260509020051 | 12 | 73 | 0.0 | 0.0 | 0.00 | 0.00 | 0.00 | 75 | 1012.0 |
| 20260509014541 | 12 | 72 | 0.0 | 0.0 | 0.00 | 0.00 | 0.00 | 75 | 1011.9 |
| 20260509013044 | 13 | 72 | 0.0 | 0.0 | 0.00 | 0.00 | 0.00 | 73 | 1011.8 |
| 20260509011541 | 13 | 72 | 0.0 | 0.0 | 0.00 | 0.00 | 0.00 | 68 | 1011.7 |
| 20260509010041 | 14 | 72 | 0.0 | 0.0 | 0.00 | 0.00 | 0.00 | 65 | 1011.7 |
| 20260509004537 | 15 | 70 | 0.0 | 0.0 | 0.00 | 0.00 | 0.00 | 63 | 1011.6 |
| 20260509003037 | 16 | 70 | 0.0 | 0.0 | 0.00 | 0.00 | 0.00 | 59 | 1011.7 |
| 20260509001536 | 17 | 70 | 0.0 | 0.0 | 0.00 | 0.00 | 0.00 | 56 | 1011.7 |
| 20260509000035 | 17 | 63 | 0.0 | 0.0 | 0.00 | 0.00 | 0.00 | 54 | 1011.8 |
| 20260508234536 | 18 | 56 | 0.0 | 3.2 | 0.00 | 0.00 | 0.00 | 51 | 1011.8 |
| 20260508233037 | 18 | 54 | 0.0 | 4.8 | 0.00 | 0.00 | 0.00 | 47 | 1011.9 |
| 20260508231536 | 19 | 49 | 3.2 | 9.7 | 0.00 | 0.00 | 0.00 | 44 | 1011.9 |
| 20260508230040 | 19 | 63 | 0.0 | 4.8 | 0.00 | 0.00 | 0.00 | 46 | 1011.8 |
| 20260508224532 | 20 | 68 | 0.0 | 4.8 | 0.00 | 0.00 | 0.00 | 44 | 1011.7 |
| 20260508223033 | 20 | 75 | 0.0 | 8.0 | 0.00 | 0.00 | 0.00 | 44 | 1011.8 |
| 20260508221531 | 20 | 70 | 0.0 | 6.4 | 0.00 | 0.00 | 0.00 | 48 | 1011.8 |
| 20260508220030 | 20 | 316 | 0.0 | 12.9 | 0.00 | 0.00 | 0.00 | 48 | 1012.0 |
| 20260508214532 | 20 | 45 | 3.2 | 11.3 | 0.00 | 0.00 | 0.00 | 43 | 1012.1 |
| 20260508213037 | 20 | 37 | 0.0 | 6.4 | 0.00 | 0.00 | 0.00 | 44 | 1012.3 |
| 20260508211535 | 20 | 38 | 1.6 | 11.3 | 0.00 | 0.00 | 0.00 | 44 | 1012.3 |
| 20260508210027 | 20 | 31 | 0.0 | 8.0 | 0.00 | 0.00 | 0.00 | 44 | 1012.4 |
| 20260508204525 | 21 | 315 | 1.6 | 11.3 | 0.00 | 0.00 | 0.00 | 42 | 1012.2 |
| 20260508203023 | 21 | 334 | 0.0 | 6.4 | 0.00 | 0.00 | 0.00 | 40 | 1012.3 |
| 20260508201522 | 21 | 27 | 0.0 | 4.8 | 0.00 | 0.00 | 0.00 | 40 | 1012.6 |
| 20260508200019 | 21 | 201 | 0.0 | 9.7 | 0.00 | 0.00 | 0.00 | 36 | 1012.5 |
| 20260508194528 | 22 | 46 | 0.0 | 6.4 | 0.00 | 0.00 | 0.00 | 40 | 1012.8 |
| 20260508193012 | 21 | 230 | 0.0 | 6.4 | 0.00 | 0.00 | 0.00 | 38 | 1013.2 |
| 20260508191509 | 21 | 29 | 0.0 | 8.0 | 0.00 | 0.00 | 0.00 | 41 | 1013.6 |
| 20260508190012 | 21 | 30 | 3.2 | 11.3 | 0.00 | 0.00 | 0.00 | 38 | 1014.2 |
| 20260508184506 | 21 | 322 | 0.0 | 6.4 | 0.00 | 0.00 | 0.00 | 41 | 1014.4 |
| 20260508183126 | 20 | 137 | 0.0 | 6.4 | 0.00 | 0.00 | 0.00 | 44 | 1014.5 |
| 20260508181606 | 20 | 50 | 4.8 | 9.7 | 0.00 | 0.00 | 0.00 | 43 | 1014.9 |
| 20260508180055 | 20 | 98 | 0.0 | 6.4 | 0.00 | 0.00 | 0.00 | 39 | 1014.9 |
| 20260508174653 | 20 | 94 | 0.0 | 8.0 | 0.00 | 0.00 | 0.00 | 41 | 1015.1 |
| 20260508173047 | 19 | 74 | 0.0 | 9.7 | 0.00 | 0.00 | 0.00 | 45 | 1015.1 |
| 20260508171545 | 18 | 103 | 4.8 | 14.5 | 0.00 | 0.00 | 0.00 | 44 | 1015.5 |
| 20260508170053 | 19 | 15 | 6.4 | 14.5 | 0.00 | 0.00 | 0.00 | 44 | 1015.7 |
| 20260508164545 | 18 | 111 | 0.0 | 4.8 | 0.00 | 0.00 | 0.00 | 45 | 1016.1 |
| 20260508163038 | 18 | 299 | 0.0 | 4.8 | 0.00 | 0.00 | 0.00 | 43 | 1016.5 |
| 20260508161539 | 18 | 281 | 0.0 | 6.4 | 0.00 | 0.00 | 0.00 | 44 | 1016.6 |
| 20260508160037 | 18 | 60 | 0.0 | 4.8 | 0.00 | 0.00 | 0.00 | 46 | 1016.9 |
| 20260508154551 | 18 | 151 | 0.0 | 8.0 | 0.00 | 0.00 | 0.00 | 45 | 1017.0 |
| 20260508153033 | 17 | 224 | 3.2 | 12.9 | 0.00 | 0.00 | 0.00 | 44 | 1017.1 |
| 20260508151533 | 17 | 214 | 0.0 | 4.8 | 0.00 | 0.00 | 0.00 | 53 | 1017.4 |
| 20260508150035 | 17 | 213 | 0.0 | 4.8 | 0.00 | 0.00 | 0.00 | 54 | 1017.5 |
| 20260508144528 | 17 | 183 | 1.6 | 4.8 | 0.00 | 0.00 | 0.00 | 53 | 1017.5 |
| 20260508143026 | 17 | 25 | 0.0 | 1.6 | 0.00 | 0.00 | 0.00 | 58 | 1017.6 |
| 20260508141531 | 16 | 129 | 0.0 | 1.6 | 0.00 | 0.00 | 0.00 | 57 | 1017.6 |
| 20260508140023 | 16 | 272 | 0.0 | 4.8 | 0.00 | 0.00 | 0.00 | 57 | 1017.6 |
| 20260508134522 | 16 | 214 | 0.0 | 4.8 | 0.00 | 0.00 | 0.00 | 58 | 1017.7 |
| 20260508133036 | 15 | 218 | 0.0 | 3.2 | 0.00 | 0.00 | 0.00 | 62 | 1017.7 |
| 20260508131517 | 15 | 160 | 0.0 | 0.0 | 0.00 | 0.00 | 0.00 | 63 | 1017.6 |
| 20260508130015 | 13 | 186 | 0.0 | 0.0 | 0.00 | 0.00 | 0.00 | 80 | 1017.5 |
| 20260508124508 | 12 | 185 | 0.0 | 0.0 | 0.00 | 0.00 | 0.00 | 86 | 1017.3 |
| 20260508123005 | 11 | 124 | 0.0 | 0.0 | 0.00 | 0.00 | 0.00 | 92 | 1017.4 |
| 20260508121600 | 10 | 108 | 0.0 | 0.0 | 0.00 | 0.00 | 0.00 | 96 | 1017.3 |
| 20260508120058 | 7 | 107 | 0.0 | 0.0 | 0.00 | 0.00 | 0.00 | 97 | 1017.3 |
| 20260508114553 | 5 | 107 | 0.0 | 0.0 | 0.00 | 0.00 | 0.00 | 96 | 1016.9 |